TimeCST,TemperatureF,Dew PointF,Humidity,Sea Level PressureIn,VisibilityMPH,Wind Direction,Wind SpeedMPH,Gust SpeedMPH,PrecipitationIn,Events,Conditions,WindDirDegrees,DateUTC
12:15 AM,17.6,14.0,86,30.11,10.0,East,12.7,-,N/A,,Overcast,80,2012-11-30 06:15:00
12:35 AM,17.6,15.8,93,30.10,10.0,East,11.5,-,N/A,,Overcast,90,2012-11-30 06:35:00
12:55 AM,17.6,15.8,93,30.08,10.0,ESE,12.7,-,N/A,,Overcast,110,2012-11-30 06:55:00
1:15 AM,17.6,15.8,93,30.11,10.0,ENE,8.1,-,N/A,,Overcast,70,2012-11-30 07:15:00
1:35 AM,17.6,15.8,93,30.11,10.0,East,9.2,-,N/A,,Overcast,80,2012-11-30 07:35:00
1:55 AM,17.6,15.8,93,30.12,10.0,ENE,9.2,-,N/A,,Overcast,70,2012-11-30 07:55:00
2:15 AM,17.6,15.8,93,30.12,10.0,ENE,6.9,-,N/A,,Overcast,60,2012-11-30 08:15:00
2:35 AM,17.6,15.8,93,30.11,10.0,East,9.2,-,N/A,,Overcast,80,2012-11-30 08:35:00
2:55 AM,17.6,17.6,100,30.11,10.0,East,9.2,-,N/A,,Overcast,100,2012-11-30 08:55:00
3:15 AM,17.6,17.6,100,30.12,9.0,East,9.2,-,N/A,,Overcast,100,2012-11-30 09:15:00
3:35 AM,17.6,17.6,100,30.10,7.0,ESE,8.1,-,N/A,,Overcast,110,2012-11-30 09:35:00
3:55 AM,17.6,17.6,100,30.10,5.0,East,8.1,-,N/A,,Overcast,90,2012-11-30 09:55:00
4:15 AM,17.6,17.6,100,30.10,4.0,East,6.9,-,N/A,,Overcast,100,2012-11-30 10:15:00
4:35 AM,19.4,19.4,100,30.09,3.0,ESE,5.8,-,N/A,,Overcast,120,2012-11-30 10:35:00
4:55 AM,19.4,19.4,100,30.09,2.5,SE,5.8,-,N/A,,Overcast,130,2012-11-30 10:55:00
5:15 AM,19.4,19.4,100,30.08,1.5,ESE,6.9,-,N/A,,Overcast,120,2012-11-30 11:15:00
5:35 AM,19.4,19.4,100,30.07,1.2,ESE,6.9,-,N/A,,Overcast,120,2012-11-30 11:35:00
5:55 AM,19.4,19.4,100,30.07,1.2,ESE,6.9,-,N/A,,Overcast,110,2012-11-30 11:55:00
6:15 AM,19.4,19.4,100,30.08,1.5,SE,8.1,-,N/A,,Overcast,130,2012-11-30 12:15:00
6:35 AM,19.4,19.4,100,30.08,1.2,ESE,8.1,-,N/A,,Overcast,120,2012-11-30 12:35:00
6:55 AM,19.4,19.4,100,30.08,1.2,SE,6.9,-,N/A,,Overcast,130,2012-11-30 12:55:00
7:15 AM,19.4,19.4,100,30.08,1.0,SE,5.8,-,N/A,,Overcast,130,2012-11-30 13:15:00
7:35 AM,21.2,21.2,100,30.07,1.0,SE,9.2,-,N/A,,Overcast,140,2012-11-30 13:35:00
7:55 AM,21.2,21.2,100,30.08,0.8,SSE,6.9,-,N/A,,Overcast,150,2012-11-30 13:55:00
8:15 AM,21.2,21.2,100,30.07,0.5,SE,9.2,-,N/A,Fog,Light Freezing Fog,140,2012-11-30 14:15:00
8:35 AM,23.0,23.0,100,30.07,0.8,SSE,9.2,-,N/A,,Overcast,150,2012-11-30 14:35:00
8:55 AM,23.0,23.0,100,30.05,0.8,SSE,12.7,-,N/A,,Overcast,150,2012-11-30 14:55:00
9:15 AM,23.0,23.0,100,30.07,1.0,SE,8.1,-,N/A,,Overcast,140,2012-11-30 15:15:00
9:35 AM,23.0,23.0,100,30.06,1.0,SSE,11.5,-,N/A,,Overcast,160,2012-11-30 15:35:00
9:55 AM,24.8,24.8,100,30.04,1.2,SSE,13.8,-,N/A,,Overcast,150,2012-11-30 15:55:00
10:15 AM,24.8,24.8,100,30.04,1.0,SSE,16.1,-,N/A,,Overcast,150,2012-11-30 16:15:00
10:35 AM,24.8,24.8,100,30.05,2.0,SSE,15.0,18.4,N/A,,Overcast,160,2012-11-30 16:35:00
10:55 AM,24.8,24.8,100,30.03,3.0,SSE,18.4,-,N/A,,Overcast,160,2012-11-30 16:55:00
11:15 AM,24.8,24.8,100,30.03,5.0,South,19.6,-,N/A,,Overcast,170,2012-11-30 17:15:00
11:35 AM,24.8,24.8,100,30.02,4.0,SSE,12.7,-,N/A,,Overcast,160,2012-11-30 17:35:00
11:55 AM,24.8,24.8,100,30.02,4.0,SSE,19.6,-,N/A,,Overcast,160,2012-11-30 17:55:00
12:15 PM,26.6,26.6,100,30.02,4.0,South,16.1,-,N/A,,Overcast,180,2012-11-30 18:15:00
12:35 PM,26.6,26.6,100,30.01,4.0,South,17.3,-,N/A,,Overcast,170,2012-11-30 18:35:00
12:55 PM,26.6,26.6,100,30.01,4.0,South,15.0,-,N/A,,Overcast,180,2012-11-30 18:55:00
1:15 PM,26.6,26.6,100,29.99,4.0,South,15.0,-,N/A,,Overcast,170,2012-11-30 19:15:00
1:35 PM,26.6,26.6,100,29.98,4.0,SSE,16.1,20.7,N/A,,Overcast,150,2012-11-30 19:35:00
1:55 PM,26.6,26.6,100,29.96,4.0,SSE,16.1,-,N/A,,Overcast,160,2012-11-30 19:55:00
2:15 PM,28.4,28.4,100,29.96,4.0,SSE,18.4,23.0,N/A,,Overcast,160,2012-11-30 20:15:00
2:35 PM,28.4,28.4,100,29.95,3.0,SSE,18.4,-,N/A,,Overcast,160,2012-11-30 20:35:00
2:55 PM,28.4,28.4,100,29.94,4.0,SSE,18.4,-,N/A,,Overcast,160,2012-11-30 20:55:00
3:15 PM,28.4,26.6,93,29.92,4.0,SSE,16.1,-,N/A,,Overcast,160,2012-11-30 21:15:00
3:35 PM,28.4,26.6,93,29.91,4.0,SSE,16.1,-,N/A,,Overcast,150,2012-11-30 21:35:00
3:55 PM,28.4,26.6,93,29.90,4.0,SSE,18.4,-,N/A,,Overcast,150,2012-11-30 21:55:00
4:15 PM,28.4,26.6,93,29.90,4.0,SSE,17.3,23.0,N/A,,Overcast,160,2012-11-30 22:15:00
4:35 PM,26.6,26.6,100,29.89,4.0,SSE,18.4,-,N/A,,Overcast,160,2012-11-30 22:35:00
4:55 PM,26.6,26.6,100,29.88,4.0,SSE,15.0,-,N/A,,Overcast,150,2012-11-30 22:55:00
5:15 PM,26.6,26.6,100,29.87,5.0,SSE,15.0,21.9,N/A,,Mostly Cloudy,150,2012-11-30 23:15:00
5:35 PM,26.6,26.6,100,29.86,5.0,SSE,16.1,-,N/A,,Partly Cloudy,150,2012-11-30 23:35:00
6:15 PM,26.6,26.6,100,29.86,5.0,SSE,15.0,-,N/A,,Mostly Cloudy,160,2012-12-01 00:15:00
6:35 PM,26.6,26.6,100,29.85,5.0,SSE,19.6,25.3,N/A,,Scattered Clouds,160,2012-12-01 00:35:00
6:55 PM,26.6,26.6,100,29.84,5.0,SSE,19.6,26.5,N/A,,Partly Cloudy,150,2012-12-01 00:55:00
7:15 PM,26.6,26.6,100,29.83,4.0,SSE,23.0,26.5,N/A,,Scattered Clouds,160,2012-12-01 01:15:00
7:35 PM,28.4,28.4,100,29.83,4.0,SSE,23.0,28.8,N/A,,Mostly Cloudy,160,2012-12-01 01:35:00
7:55 PM,28.4,28.4,100,29.83,4.0,SSE,19.6,-,N/A,,Overcast,160,2012-12-01 01:55:00
8:15 PM,28.4,28.4,100,29.81,3.0,SSE,19.6,28.8,N/A,,Overcast,160,2012-12-01 02:15:00
8:35 PM,28.4,28.4,100,29.80,3.0,SSE,21.9,25.3,N/A,,Overcast,160,2012-12-01 02:35:00
9:15 PM,28.4,28.4,100,29.78,3.0,SSE,20.7,27.6,N/A,,Overcast,150,2012-12-01 03:15:00
9:35 PM,30.2,30.2,100,29.79,3.0,SSE,21.9,27.6,N/A,,Overcast,160,2012-12-01 03:35:00
10:15 PM,30.2,30.2,100,29.76,3.0,SSE,23.0,27.6,N/A,,Overcast,150,2012-12-01 04:15:00
10:35 PM,30.2,30.2,100,29.75,3.0,SSE,23.0,27.6,N/A,,Mostly Cloudy,150,2012-12-01 04:35:00
11:15 PM,32.0,32.0,100,29.74,3.0,SSE,20.7,-,N/A,,Scattered Clouds,150,2012-12-01 05:15:00
11:35 PM,32.0,32.0,100,29.73,3.0,SSE,20.7,27.6,N/A,,Scattered Clouds,150,2012-12-01 05:35:00
11:55 PM,32.0,32.0,100,29.73,2.5,SSE,13.8,-,N/A,,Mostly Cloudy,150,2012-12-01 05:55:00